Flag for Canada Weather past 2 weeks in Riverview, New Brunswick, Canada

Now
23 °F

Snow. Ice fog.


Feels Like: 8 °F
Forecast: 19 / 28 °F
Wind: 22 mph from North

Location: Moncton

Current Time: Jan 31, 2015 at 8:41:29 AM

Latest Report: Jan 31, 2015 at 8:00 AM


Visibility: 0 mi

Pressure: 29.55 "Hg

Humidity: 93%

Dew point: 21 °F

Location of RiverviewLocation

Historic Weather in Riverview — Graph

°F

Riverview temperature yesterday

Maximum temperature yesterday: 21 °F (at 3:00 PM)
Minimum temperature yesterday: 0 °F (at 5:56 AM)
Average temperature yesterday: 13 °F

Past Weeks' High & Low Weather Summary

 TemperatureHumidityPressure
High46 °F (Jan 19, 11:00 AM)100% (Jan 19, 4:00 PM)30.37 "Hg (Jan 19, 4:00 PM)
Low-6 °F (Jan 17, 6:00 AM)46% (Jan 17, 5:00 PM)28.64 "Hg (Jan 25, 2:00 AM)
Average19 °F76%29.83 "Hg
* Reported Jan 16 7:00 AM — Jan 31 7:00 AM, Riverview, Weather by CustomWeather, © 2014

Note: Actual official high and low records may vary slightly from our data, if they occured in-between our weather recording intervals... More about our weather records

Advertising

Riverview weather history for previous 24 hours

 ConditionsComfort  
Time TempWeatherWind HumidityBarometerVisibility
7:00 AM
Jan 31
23 °FSnow. Ice fog.20 mph93%29.58 "Hg1 mi
6:00 AM21 °FSnow. Ice fog.24 mph93%29.59 "Hg0 mi
5:54 AM21 °FCold.23 mph93%29.60 "Hg1 mi
5:00 AM21 °FLight snow. Ice fog.21 mph93%29.64 "Hg1 mi
4:00 AM21 °FLight snow. Ice fog.18 mph86%29.66 "Hg1 mi
3:00 AM21 °FLight snow. Mostly cloudy.13 mph93%29.71 "Hg7 mi
2:00 AM19 °FLow clouds.7 mph93%29.74 "Hg8 mi
1:00 AM19 °FLow clouds.8 mph93%29.77 "Hg8 mi
12:00 AM19 °FLow clouds.8 mph86%29.78 "Hg10 mi
11:00 PM
Jan 30
19 °FMostly cloudy.6 mph86%29.81 "Hg10 mi
10:49 PM19 °FMostly cloudy.7 mph86%29.81 "Hg10 mi
10:00 PM19 °FMostly cloudy.8 mph86%29.82 "Hg10 mi
9:00 PM19 °FLow clouds.6 mph86%29.85 "Hg10 mi
8:00 PM19 °FMostly cloudy.9 mph86%29.84 "Hg10 mi
7:00 PM19 °FLow clouds.6 mph93%29.87 "Hg15 mi
6:00 PM19 °FMostly cloudy.7 mph86%29.88 "Hg15 mi
5:00 PM19 °FMostly cloudy.5 mph93%29.87 "Hg15 mi
4:00 PM21 °FCloudy.5 mph93%29.86 "Hg15 mi
3:00 PM21 °FPartly sunny.2 mph86%29.88 "Hg15 mi
2:00 PM19 °FBroken clouds.6 mph86%29.89 "Hg15 mi
1:00 PM18 °FLow clouds.6 mph93%29.91 "Hg10 mi
12:00 PM16 °FIce fog.6 mph86%29.95 "Hg5 mi
11:00 AM16 °FIce fog.7 mph86%29.98 "Hg1 mi
10:00 AM12 °FIce fog.No wind85%29.99 "Hg2 mi
9:00 AM10 °FIce fog.5 mph85%30.01 "Hg1 mi
8:00 AM3 °FFrigid.6 mph85%30.03 "Hg1 mi
Weather by CustomWeather, © 2014

See weather overviewHow to use our weather pages